Content
SEND FEEDBACK

Daily
Averages
Monthly
Summary
United States of America

ASHEVILLE, NORTH CAROLINA


Home > North America > United States > North Carolina
Elevation: 2240 feet     Latitude: 35 36N     Longitude: 082 32W

WEATHER
 
SELECT A DAY
Number of Records: 225,663;   Date Range: 1/1/95 - 7/23/14
 
SHARE

PRINT THIS DATA

[ ← Previous Day ]
WEATHER ALMANAC - OCTOBER 7, 2013
[ Next Day → ]
[ °C ]   °F
Weather ElementAverageHighLow
Temperature60.8 °F64.4 °F (12:24 am)54 °F (11:54 pm)
Dewpoint56.6 °F63 °F (12:54 am)46.9 °F (4:54 pm)
Humidity87.2 %100 % (3:33 am)54 % (4:54 pm)
Barometer29.92 in30.05 in (11:54 pm)29.81 in (3:54 am)
Wind Speed8.5 mph20.7 mph (12:08 pm)
Wind Gust27.6 mph (11:54 am)
Weather ElementAverage
Visibility7.2 mi
Wind DirectionSW (219.8 °)

Weather ElementTotal
Precipitation4.08 in
Heating Degree Days5.8 (Base 65)
Growing Degree Days9.2 (Base 50)
Averaged from 50 records on October 7, 2013
WEATHER CONDITIONS BREAKOUT
WIND DIRECTION BREAKOUT
WEATHER BY HOUR - OCTOBER 7, 2013
[ °C ]   °F
Local TimeTemperatureDewpointHumidityBarometerVisibilityWind DirectionWind SpeedGust SpeedPrecipitationEventsConditions
12:24 AM64.4 °F62.6 °F94 %29.96 in2.5 miWNW (300°)3.5 mph0.07 inRainHeavy Rain
12:35 AM64.4 °F62.6 °F94 %29.96 in2.0 miCalm0.14 inRainHeavy Rain
12:44 AM64.4 °F62.6 °F94 %29.96 in1.2 miCalm0.22 inRainHeavy Rain
12:54 AM64.0 °F63.0 °F96 %29.88 in1.2 miCalm0.34 inRainHeavy Rain
1:06 AM64.4 °F62.6 °F94 %29.93 in2.0 miNorth (350°)4.6 mph0.19 inRainHeavy Rain
1:16 AM64.4 °F62.6 °F94 %29.93 in3.0 miCalm0.25 inRainHeavy Rain
1:36 AM64.4 °F62.6 °F94 %29.94 in1.8 miSW (220°)3.5 mph0.35 inRainHeavy Rain
1:45 AM64.4 °F62.6 °F94 %29.93 in2.0 miSE (140°)5.8 mph0.45 inRainHeavy Rain
1:54 AM63.0 °F62.1 °F97 %29.85 in3.0 miCalm0.52 inRainHeavy Rain
2:54 AM63.0 °F61.0 °F93 %29.82 in10.0 miCalm0.08 inMostly Cloudy
3:33 AM62.6 °F62.6 °F100 %29.88 in2.5 miCalm0.07 inRainHeavy Rain
3:43 AM62.6 °F62.6 °F100 %29.88 in5.0 miCalm0.08 inRainLight Rain
3:54 AM62.1 °F62.1 °F100 %29.81 in9.0 miSouth (170°)3.5 mph0.08 inRainLight Rain
3:58 AM62.6 °F62.6 °F100 %29.88 in9.0 miCalm0.00 inOvercast
4:11 AM62.6 °F62.6 °F100 %29.88 in9.0 miCalm0.00 inRainLight Rain
4:38 AM62.6 °F60.8 °F94 %29.89 in2.0 miSouth (170°)4.6 mph0.11 inRainHeavy Rain
4:45 AM62.6 °F62.6 °F100 %29.89 in1.8 miSouth (180°)4.6 mph0.19 inRainHeavy Rain
4:54 AM62.1 °F62.1 °F100 %29.82 in2.5 miSSE (160°)3.5 mph0.27 inRainRain
5:01 AM62.6 °F62.6 °F100 %29.89 in3.0 miSouth (170°)3.5 mph0.04 inRainHeavy Rain
5:13 AM62.6 °F62.6 °F100 %29.90 in5.0 miCalm0.07 inRainRain
5:42 AM62.6 °F62.6 °F100 %29.90 in9.0 miCalm0.11 inRainLight Rain
5:54 AM62.1 °F61.0 °F96 %29.83 in9.0 miCalm0.11 inRainLight Rain
6:41 AM62.6 °F62.6 °F100 %29.91 in4.0 miSouth (170°)3.5 mph0.09 inRainRain
6:54 AM63.0 °F62.1 °F97 %29.84 in5.0 miCalm0.13 inRainRain
7:19 AM60.8 °F59.0 °F94 %29.90 in10.0 miNW (320°)15.0 mph0.02 inRainLight Rain
7:28 AM57.2 °F57.2 °F100 %29.92 in10.0 miNNW (330°)15.0 mph0.02 inRainLight Rain
7:46 AM55.4 °F55.4 °F100 %29.93 in10.0 miNNW (340°)13.8 mph23.0 mph0.02 inRainLight Rain
7:54 AM55.9 °F54.0 °F93 %29.88 in7.0 miNNW (340°)15.0 mph20.7 mph0.03 inRainRain
8:03 AM55.4 °F53.6 °F94 %29.93 in9.0 miNorth (350°)16.1 mph23.0 mph0.01 inRainLight Rain
8:38 AM55.4 °F53.6 °F94 %29.93 in10.0 miNNW (340°)16.1 mph23.0 mph0.01 inMostly Cloudy
8:54 AM55.0 °F53.1 °F93 %29.88 in10.0 miNNW (340°)18.4 mph23.0 mph0.01 inOvercast
9:54 AM55.9 °F53.1 °F90 %29.91 in10.0 miNNW (340°)17.3 mphOvercast
10:54 AM57.9 °F53.1 °F84 %29.91 in10.0 miNNW (340°)18.4 mphMostly Cloudy
11:29 AM60.8 °F53.6 °F77 %29.96 in10.0 miNorth (350°)11.5 mph21.9 mphMostly Cloudy
11:54 AM59.0 °F52.0 °F78 %29.93 in10.0 miNorth (350°)16.1 mph27.6 mphMostly Cloudy
12:08 PM59.0 °F51.8 °F77 %29.98 in10.0 miNorth (350°)20.7 mph26.5 mphOvercast
12:43 PM59.0 °F51.8 °F77 %29.98 in10.0 miNorth (350°)18.4 mph26.5 mphOvercast
12:54 PM60.1 °F52.0 °F75 %29.93 in10.0 miNorth (350°)13.8 mph26.5 mphOvercast
1:54 PM60.1 °F51.1 °F72 %29.93 in10.0 miNorth (350°)11.5 mph20.7 mphOvercast
2:54 PM61.0 °F51.1 °F70 %29.92 in10.0 miNorth (360°)13.8 mph19.6 mphMostly Cloudy
3:54 PM63.0 °F48.0 °F58 %29.91 in10.0 miNNW (340°)18.4 mph25.3 mphMostly Cloudy
4:01 PM64.4 °F48.2 °F56 %29.96 in10.0 miNNW (340°)19.6 mph24.2 mphClear
4:54 PM64.0 °F46.9 °F54 %29.91 in10.0 miNNW (340°)19.6 mph26.5 mphClear
5:54 PM64.0 °F46.9 °F54 %29.93 in10.0 miNNW (340°)12.7 mph20.7 mphClear
6:54 PM60.1 °F48.0 °F64 %29.95 in10.0 miNNW (340°)16.1 mph20.7 mphClear
7:54 PM57.9 °F48.0 °F70 %29.97 in10.0 miNNW (340°)13.8 mph23.0 mphClear
8:54 PM57.0 °F48.0 °F72 %30.00 in10.0 miNorth (350°)9.2 mph18.4 mphClear
9:54 PM55.9 °F48.0 °F75 %30.02 in10.0 miNorth (350°)9.2 mphClear
10:54 PM55.0 °F48.0 °F77 %30.04 in10.0 miNorth (360°)8.1 mphClear
11:54 PM54.0 °F48.0 °F80 %30.05 in10.0 miNorth (360°)8.1 mphClear
Hourly data recorded from KAVL, located miles away from Asheville, North Carolina







STORIES FROM OUR PARTNERS